Olathe, KS

10:22 AM CST on February 20, 2018 (GMT -0600)
Johnson County Executive

Weather History for KOJC - March, 2012

Change the Weather History Date:

Monday, March 5, 2012

  Actual Average Record
Temperature  
Mean Temperature 41 °F 41 °F  
Max Temperature 58 °F 51 °F 84 °F (1956)
Min Temperature 24 °F 31 °F -7 °F (1960)
Degree Days  
Heating Degree Days 24 24  
Month to date heating degree days 108 124  
Since 1 July heating degree days 3465 4017  
Cooling Degree Days 0 0  
Month to date cooling degree days 0 0  
Year to date cooling degree days 0 0  
Moisture  
Dew Point 24 °F    
Average Humidity 56    
Maximum Humidity 88    
Minimum Humidity 24    
Precipitation  
Precipitation 0.14 in 0.09 in 0.96 in (1963)
Month to date precipitation 0.14 0.44  
Year to date precipitation 0.73 3.13  
Sea Level Pressure  
Sea Level Pressure 30.20 in    
Wind  
Wind Speed 9 mph (South)    
Max Wind Speed 22 mph    
Max Gust Speed 31 mph    
Visibility 10 miles    
Events      
T = Trace of Precipitation, MM = Missing Value Source: NWS Daily Summary

Daily Weather History Graph

Daily Weather History Graph

Search for Another Location

Airport or City:

Trip Planner

Search our weather history database for the weather conditions in past years. The results will help you decide how hot, cold, wet, or windy it might be!

Date:

Astronomy

Mar. 05, 2012 Rise Set
Actual Time 6:44 AM CST 6:16 PM CST
Civil Twilight 6:18 AM CST 6:43 PM CST
Nautical Twilight 5:47 AM CST 7:13 PM CST
Astronomical Twilight 5:16 AM CST 7:44 PM CST
Moon 3:36 PM CST (3/5) 4:43 AM CST (3/5)
Length of Visible Light 12h 25m
Length of Day
11h 31m
Waxing Gibbous, 91% of the Moon is Illuminated
Mar 5
Waxing Gibbous
Mar 8
Full
Mar 14
Last Quarter
Mar 22
New
Mar 30
First Quarter

Hourly Weather History & Observations

Time (CST) Temp. Windchill Dew Point Humidity Pressure Visibility Wind Dir Wind Speed Gust Speed Precip Events Conditions
12:53 AM 36.0 °F 30.3 °F 21.9 °F 57% 30.22 in 10.0 mi NNW 6.9 mph - N/A   Clear
1:53 AM 33.1 °F - 21.9 °F 64% 30.25 in 10.0 mi Calm Calm - N/A   Clear
2:53 AM 30.0 °F 25.2 °F 21.0 °F 69% 30.26 in 10.0 mi NNW 4.6 mph - N/A   Clear
3:53 AM 30.0 °F - 21.9 °F 72% 30.26 in 10.0 mi Calm Calm - N/A   Clear
4:53 AM 28.0 °F - 21.0 °F 75% 30.29 in 10.0 mi Calm Calm - N/A   Clear
5:53 AM 25.0 °F - 21.0 °F 85% 30.30 in 10.0 mi Calm Calm - N/A   Clear
6:53 AM 25.0 °F - 21.0 °F 85% 30.33 in 7.0 mi Calm Calm - N/A   Clear
7:53 AM 28.9 °F 25.2 °F 23.0 °F 78% 30.35 in 9.0 mi SW 3.5 mph - N/A   Clear
8:53 AM 34.0 °F 28.8 °F 25.0 °F 70% 30.34 in 10.0 mi SSE 5.8 mph - N/A   Clear
9:53 AM 39.9 °F 33.4 °F 24.1 °F 53% 30.35 in 10.0 mi SSE 10.4 mph - N/A   Clear
10:53 AM 44.1 °F 37.7 °F 21.9 °F 42% 30.32 in 10.0 mi SSE 12.7 mph - N/A   Clear
11:53 AM 48.0 °F - 21.9 °F 36% 30.30 in 10.0 mi SSE 11.5 mph - 0.09 in   Clear
12:53 PM 51.1 °F - 21.9 °F 32% 30.27 in 10.0 mi South 13.8 mph - N/A   Clear
1:53 PM 53.1 °F - 19.9 °F 27% 30.22 in 10.0 mi South 17.3 mph 23.0 mph N/A   Clear
2:53 PM 55.0 °F - 21.0 °F 27% 30.17 in 10.0 mi South 18.4 mph 26.5 mph N/A   Clear
3:53 PM 57.0 °F - 21.0 °F 25% 30.14 in 10.0 mi SSE 18.4 mph - N/A   Clear
4:53 PM 57.0 °F - 21.9 °F 26% 30.11 in 10.0 mi South 17.3 mph 25.3 mph N/A   Clear
5:53 PM 55.0 °F - 24.1 °F 30% 30.08 in 10.0 mi South 15.0 mph - N/A   Clear
6:53 PM 53.1 °F - 25.0 °F 34% 30.06 in 10.0 mi SSE 11.5 mph - N/A   Clear
7:53 PM 51.1 °F - 27.0 °F 39% 30.04 in 10.0 mi SSE 12.7 mph - N/A   Clear
8:53 PM 51.1 °F - 28.0 °F 41% 30.04 in 10.0 mi South 10.4 mph - N/A   Clear
9:53 PM 48.0 °F - 28.9 °F 48% 30.03 in 10.0 mi South 9.2 mph - N/A   Clear
10:53 PM 52.0 °F - 30.9 °F 45% 30.00 in 10.0 mi South 12.7 mph - N/A   Clear
11:53 PM 54.0 °F - 32.0 °F 43% 29.97 in 10.0 mi South 15.0 mph 23.0 mph N/A   Clear